Voltar ao catálogo

STARLINK-5409

AtivoComunicaçõesVLEO
NORAD 54859·PAYLOAD·🇺🇸 United States

Lançado Dec 28, 2022 de Cape Canaveral Space Force Station

Loading…

Próximas Passagens (próximas 24 horas)

TLE

AtualizadoSource: CelesTrak SupGP

Época: Sep 14, 2026, 21:31 UTC

1 54859C 22177AR  26257.89701389 -.00017312  00000+0 -62717-3 0  2575
2 54859  42.9990 133.1473 0001217 244.7368 206.2667 15.27580262    11

Acompanhe STARLINK-5409 em tempo real com AllMySat

Download on the App Store